When you browse on this site, cookies collect data to enhance your experience and personalize the content and advertising you see.
Visit our Privacy Policy to learn more. By continuing to use the site, you agree to this use of cookies and data.
  • In France
  • List of Countries
  • For 7 days
  • Water Temperature
  • Weather Map
  • Weather Widgets
  • user-avatar
    Login

    Hourly Weather Safaga

    Today, 26 August, Monday

    Time Temperature Precipitation Wind Pressure Humidity
    00:00 +27°C° 0 mm 1 mps 701 mmHg 36%
    01:00 +26°C° 0 mm 1 mps 701 mmHg 35%
    02:00 +26°C° 0 mm 1 mps 700 mmHg 35%
    03:00 +26°C° 0 mm 1 mps 700 mmHg 35%
    04:00 +25°C° 0 mm 1 mps 701 mmHg 34%
    05:00 +25°C° 0 mm 1 mps 701 mmHg 34%
    06:00 +28°C° 0 mm 1 mps 701 mmHg 29%
    07:00 +31°C° 0 mm 1 mps 702 mmHg 24%
    08:00 +33°C° 0 mm 1 mps 702 mmHg 19%
    09:00 +36°C° 0 mm 2 mps 703 mmHg 16%
    10:00 +38°C° 0 mm 3 mps 703 mmHg 14%
    11:00 +41°C° 0 mm 4 mps 704 mmHg 11%
    12:00 +41°C° 0 mm 4 mps 703 mmHg 10%
    13:00 +42°C° 0 mm 4 mps 703 mmHg 9%
    14:00 +42°C° 0 mm 4 mps 702 mmHg 9%
    15:00 +42°C° 0 mm 4 mps 702 mmHg 9%
    16:00 +41°C° 0 mm 4 mps 702 mmHg 10%
    17:00 +40°C° 0 mm 4 mps 702 mmHg 11%
    18:00 +37°C° 0 mm 4 mps 702 mmHg 14%
    19:00 +35°C° 0 mm 4 mps 701 mmHg 17%
    20:00 +32°C° 0 mm 4 mps 701 mmHg 20%
    21:00 +32°C° 0 mm 4 mps 701 mmHg 21%
    22:00 +30°C° 0 mm 4 mps 702 mmHg 22%
    23:00 +30°C° 0 mm 4 mps 702 mmHg 22%

    Tomorrow, 27 August, Tuesday

    Time Temperature Precipitation Wind Pressure Humidity
    00:00 +29°C° 0 mm 4 mps 701 mmHg 23%
    01:00 +29°C° 0 mm 4 mps 701 mmHg 23%
    02:00 +28°C° 0 mm 4 mps 700 mmHg 24%
    03:00 +28°C° 0 mm 3 mps 700 mmHg 24%
    04:00 +27°C° 0 mm 3 mps 701 mmHg 25%
    05:00 +26°C° 0 mm 2 mps 701 mmHg 26%
    06:00 +29°C° 0 mm 3 mps 701 mmHg 23%
    07:00 +32°C° 0 mm 4 mps 702 mmHg 21%
    08:00 +35°C° 0 mm 5 mps 702 mmHg 18%
    09:00 +36°C° 0 mm 5 mps 703 mmHg 16%
    10:00 +39°C° 0 mm 6 mps 703 mmHg 14%
    11:00 +40°C° 0 mm 6 mps 704 mmHg 11%
    12:00 +41°C° 0 mm 6 mps 703 mmHg 11%
    13:00 +42°C° 0 mm 6 mps 703 mmHg 10%
    14:00 +42°C° 0 mm 6 mps 702 mmHg 10%
    15:00 +42°C° 0 mm 6 mps 702 mmHg 10%
    16:00 +41°C° 0 mm 5 mps 702 mmHg 10%
    17:00 +41°C° 0 mm 5 mps 701 mmHg 11%
    18:00 +37°C° 0 mm 5 mps 701 mmHg 14%
    19:00 +35°C° 0 mm 5 mps 701 mmHg 17%
    20:00 +32°C° 0 mm 4 mps 701 mmHg 21%
    21:00 +32°C° 0 mm 4 mps 701 mmHg 22%
    22:00 +30°C° 0 mm 4 mps 702 mmHg 24%
    23:00 +30°C° 0 mm 4 mps 702 mmHg 25%

    Day after tomorrow, 28 August, Wednesday

    Time Temperature Precipitation Wind Pressure Humidity
    00:00 +29°C° 0 mm 4 mps 701 mmHg 26%
    01:00 +29°C° 0 mm 4 mps 701 mmHg 26%
    02:00 +28°C° 0 mm 4 mps 700 mmHg 27%
    03:00 +28°C° 0 mm 3 mps 700 mmHg 28%
    04:00 +27°C° 0 mm 3 mps 700 mmHg 29%
    05:00 +26°C° 0 mm 3 mps 700 mmHg 30%
    06:00 +28°C° 0 mm 4 mps 701 mmHg 26%
    07:00 +32°C° 0 mm 5 mps 702 mmHg 23%
    08:00 +34°C° 0 mm 5 mps 702 mmHg 19%
    09:00 +35°C° 0 mm 5 mps 702 mmHg 16%
    10:00 +37°C° 0 mm 5 mps 702 mmHg 13%
    11:00 +39°C° 0 mm 5 mps 702 mmHg 10%
    12:00 +40°C° 0 mm 5 mps 702 mmHg 9%
    13:00 +40°C° 0 mm 5 mps 702 mmHg 9%
    14:00 +41°C° 0 mm 4 mps 701 mmHg 8%
    15:00 +41°C° 0 mm 5 mps 701 mmHg 9%
    16:00 +40°C° 0 mm 5 mps 701 mmHg 10%
    17:00 +39°C° 0 mm 6 mps 701 mmHg 11%
    18:00 +36°C° 0 mm 6 mps 701 mmHg 14%
    19:00 +34°C° 0 mm 5 mps 701 mmHg 18%
    20:00 +32°C° 0 mm 5 mps 701 mmHg 21%
    21:00 +30°C° 0 mm 5 mps 701 mmHg 23%
    22:00 +30°C° 0 mm 5 mps 701 mmHg 25%
    23:00 +29°C° 0 mm 4 mps 701 mmHg 27%

    29 August, Thursday

    Time Temperature Precipitation Wind Pressure Humidity
    00:00 +28°C° 0 mm 4 mps 700 mmHg 29%
    01:00 +28°C° 0 mm 3 mps 700 mmHg 32%
    02:00 +27°C° 0 mm 3 mps 700 mmHg 34%
    03:00 +26°C° 0 mm 2 mps 700 mmHg 36%
    04:00 +25°C° 0 mm 2 mps 700 mmHg 38%
    05:00 +24°C° 0 mm 2 mps 700 mmHg 41%
    06:00 +27°C° 0 mm 2 mps 700 mmHg 35%
    07:00 +29°C° 0 mm 2 mps 701 mmHg 30%
    08:00 +32°C° 0 mm 2 mps 701 mmHg 25%
    09:00 +35°C° 0 mm 2 mps 702 mmHg 22%
    10:00 +36°C° 0 mm 2 mps 702 mmHg 18%
    11:00 +38°C° 0 mm 2 mps 702 mmHg 15%
    12:00 +39°C° 0 mm 3 mps 702 mmHg 14%
    13:00 +41°C° 0 mm 4 mps 701 mmHg 13%
    14:00 +42°C° 0 mm 4 mps 701 mmHg 12%
    15:00 +41°C° 0 mm 4 mps 701 mmHg 13%
    16:00 +40°C° 0 mm 4 mps 701 mmHg 15%
    17:00 +38°C° 0 mm 4 mps 700 mmHg 17%
    18:00 +35°C° 0 mm 3 mps 700 mmHg 22%
    19:00 +32°C° 0 mm 2 mps 700 mmHg 26%
    20:00 +29°C° 0 mm 1 mps 700 mmHg 31%
    21:00 +29°C° 0 mm 2 mps 700 mmHg 29%
    22:00 +29°C° 0 mm 3 mps 700 mmHg 27%
    23:00 +29°C° 0 mm 4 mps 700 mmHg 25%

    30 August, Friday

    Time Temperature Precipitation Wind Pressure Humidity
    00:00 +28°C° 0 mm 4 mps 700 mmHg 26%
    01:00 +28°C° 0 mm 4 mps 699 mmHg 26%
    02:00 +27°C° 0 mm 4 mps 699 mmHg 27%
    03:00 +27°C° 0 mm 4 mps 699 mmHg 28%
    04:00 +26°C° 0 mm 3 mps 699 mmHg 30%
    05:00 +26°C° 0 mm 3 mps 699 mmHg 31%
    06:00 +28°C° 0 mm 2 mps 700 mmHg 28%
    07:00 +30°C° 0 mm 2 mps 700 mmHg 24%
    08:00 +32°C° 0 mm 2 mps 701 mmHg 21%
    09:00 +35°C° 0 mm 2 mps 701 mmHg 18%
    10:00 +37°C° 0 mm 3 mps 701 mmHg 15%
    11:00 +39°C° 0 mm 3 mps 701 mmHg 12%
    12:00 +40°C° 0 mm 3 mps 701 mmHg 11%
    13:00 +41°C° 0 mm 4 mps 701 mmHg 10%
    14:00 +42°C° 0 mm 4 mps 701 mmHg 9%
    15:00 +42°C° 0 mm 3 mps 700 mmHg 10%
    16:00 +40°C° 0 mm 3 mps 700 mmHg 11%
    17:00 +40°C° 0 mm 3 mps 700 mmHg 11%
    18:00 +37°C° 0 mm 4 mps 700 mmHg 15%
    19:00 +35°C° 0 mm 4 mps 700 mmHg 18%
    20:00 +32°C° 0 mm 5 mps 700 mmHg 21%
    21:00 +30°C° 0 mm 5 mps 700 mmHg 22%
    22:00 +30°C° 0 mm 5 mps 700 mmHg 24%
    23:00 +29°C° 0 mm 5 mps 699 mmHg 25%

    31 August, Saturday

    Time Temperature Precipitation Wind Pressure Humidity
    00:00 +28°C° 0 mm 5 mps 699 mmHg 26%
    01:00 +27°C° 0 mm 4 mps 699 mmHg 27%
    02:00 +27°C° 0 mm 3 mps 698 mmHg 28%
    03:00 +26°C° 0 mm 3 mps 698 mmHg 32%
    04:00 +25°C° 0 mm 2 mps 698 mmHg 35%
    05:00 +24°C° 0 mm 2 mps 698 mmHg 39%
    06:00 +27°C° 0 mm 2 mps 699 mmHg 35%
    07:00 +29°C° 0 mm 2 mps 700 mmHg 31%
    08:00 +31°C° 0 mm 2 mps 700 mmHg 28%
    09:00 +34°C° 0 mm 3 mps 700 mmHg 24%
    10:00 +36°C° 0 mm 3 mps 701 mmHg 19%
    11:00 +38°C° 0 mm 4 mps 701 mmHg 15%
    12:00 +40°C° 0 mm 4 mps 701 mmHg 14%
    13:00 +41°C° 0 mm 4 mps 700 mmHg 12%
    14:00 +42°C° 0 mm 4 mps 700 mmHg 11%
    15:00 +41°C° 0 mm 5 mps 700 mmHg 11%
    16:00 +41°C° 0 mm 5 mps 700 mmHg 10%
    17:00 +40°C° 0 mm 6 mps 700 mmHg 10%
    18:00 +38°C° 0 mm 6 mps 700 mmHg 11%
    19:00 +34°C° 0 mm 6 mps 700 mmHg 13%
    20:00 +32°C° 0 mm 6 mps 700 mmHg 14%
    21:00 +30°C° 0 mm 5 mps 700 mmHg 15%
    22:00 +29°C° 0 mm 5 mps 699 mmHg 16%
    23:00 +28°C° 0 mm 4 mps 699 mmHg 17%
    Show more